Header for Extended Forecast Station List Page

Search by: ID | Name | Date | Parm | Value | Avg | % Avg
Sort by: ID | Name | Date | Parm | Value | Avg | % Avg

Enter search or view all records.

Click on id for station plot
#IDNameDateParmValueAvg% Avg
0MAGI1BIG WOOD-MAGIC DAM10-12-2021INFLOW (KAF)82731
1WGCM8MF FLATHEAD-NEAR WEST GLACIER10-12-2021DISCHARGE (KAF)5917334
2COEI1COEUR D ALENE-COEUR D ALENE LAKE10-12-2021INFLOW (KAF)23761738
3SATI1ST MARIES-NEAR SANTA10-12-2021DISCHARGE (KAF)123042
4WSRI1WEISER-NEAR WEISER10-12-2021DISCHARGE (KAF)306943
5DWRI1NF CLEARWATER-DWORSHAK DAM10-12-2021INFLOW (KAF)21348644
6STRM8ST. REGIS-NEAR ST. REGIS10-12-2021DISCHARGE (KAF)173747
7ORFI1CLEARWATER-AT OROFINO10-12-2021DISCHARGE (KAF)31164248
8SPDI1CLEARWATER-AT SPALDING10-12-2021DISCHARGE (KAF)739153348
9LLKW1SPOKANE-AT LONGLAKE10-12-2021INFLOW (KAF)524107549
10TNAW1TEANAWAY-BELOW FORKS10-12-2021DISCHARGE (KAF)193651
11HEII1SNAKE-NEAR HEISE10-12-2021DISCHARGE (KAF)31361851
12BITM8BITTERROOT-NEAR MISSOULA10-12-2021DISCHARGE (KAF)11923152
13NOXM8CLARK FORK-NOXON RAPIDS DAM10-12-2021INFLOW (KAF)1882348254
14LGSW1SNAKE-LITTLE GOOSE DAM10-12-2021INFLOW (KAF)4001739154
15LMNW1SNAKE-LOWER MONUMENTAL DAM10-12-2021INFLOW (KAF)4028745154
16ALFW1PEND OREILLE-ALBENI FALLS DAM10-12-2021INFLOW (KAF)2311422755
17HALI1BIG WOOD-AT HAILEY10-12-2021DISCHARGE (KAF)224155
18LGDW1SNAKE-LOWER GRANITE DAM10-12-2021INFLOW (KAF)4002733855
19IHDW1SNAKE-ICE HARBOR DAM10-12-2021INFLOW (KAF)4028737555
20CABI1CLARK FORK-CABINET GORGE DAM10-12-2021INFLOW (KAF)2063363357
21TRYO3GRANDE RONDE-TROY10-12-2021DISCHARGE (KAF)15927957
22MONO3NF JOHN DAY-AT MONUMENT10-12-2021DISCHARGE (KAF)539257
23HHWM8SF FLATHEAD-HUNGRY HORSE DAM10-12-2021INFLOW (KAF)14224658
24BFTI1SNAKE-NEAR BLACKFOOT10-12-2021DISCHARGE (KAF)45078058
25ANAW1SNAKE-NEAR ANATONE10-12-2021DISCHARGE (KAF)3261559458
26SNAI1SNAKE-AT BLACKFOOT10-12-2021DISCHARGE (KAF)42972359
27PIHI1PORTNEUF-AT POCATELLO10-12-2021DISCHARGE (KAF)376061
28KERM8FLATHEAD-SELI’Š KSANKA QLISPE’ DAM10-12-2021INFLOW (KAF)931150462
29RILW1TIETON-RIMROCK LAKE NEAR RIMROCK10-12-2021INFLOW (KAF)416562
30HWRI1BIG LOST-AT HOWELL RANCH NEAR CHILLY10-12-2021DISCHARGE (KAF)142262
31BERO3MALHEUR-AGENCY VALLEY DAM10-12-2021INFLOW (KAF)91562
32FCFM8NF FLATHEAD-NEAR COLUMBIA FALLS10-12-2021DISCHARGE (KAF)12719764
33LAUW1KETTLE-AT LAURIER10-12-2021DISCHARGE (KAF)8212864
34SIFI1SNAKE-AB EAGLE ROCK NR IDAHO FALLS10-12-2021DISCHARGE (KAF)52482264
35SHYI1SNAKE-NEAR SHELLEY10-12-2021DISCHARGE (KAF)51680464
36EMMI1PAYETTE-NEAR EMMETT10-12-2021DISCHARGE (KAF)22334764
37TCHW1WALLA WALLA-NEAR TOUCHET10-12-2021DISCHARGE (KAF)6510264
38SERO3JOHN DAY-AT SERVICE CK10-12-2021DISCHARGE (KAF)11117564
39LWRI1LITTLE WOOD-LITTLE WOOD DAM10-12-2021INFLOW (KAF)101565
40OWYO3OWYHEE-OWYHEE DAM10-12-2021INFLOW (KAF)497665
41WHBI1SALMON-AT WHITEBIRD10-12-2021DISCHARGE (KAF)705109065
42SRGM8CLARK FORK-AT ST REGIS10-12-2021DISCHARGE (KAF)51176167
43DEDI1DEADWOOD-NEAR LOWMAN10-12-2021INFLOW (KAF)131967
44IPDI1HENRYS FORK-ISLAND PARK DAM10-12-2021INFLOW (KAF)8111868
45BELM8CLARK FORK-BELOW MISSOULA10-12-2021DISCHARGE (KAF)40258469
46PRTI1PRIEST-NEAR PRIEST RIVER10-12-2021DISCHARGE (KAF)16223769
47WEII1SNAKE-AT WEISER10-12-2021DISCHARGE (KAF)2501360069
48SWAI1SNAKE-BELOW SWAN FALLS10-12-2021DISCHARGE (KAF)1776254870
49CFMM8FLATHEAD-AT COLUMBIA FALLS10-12-2021DISCHARGE (KAF)864119672
50CSDI1NF PAYETTE-CASCADE DAM10-12-2021INFLOW (KAF)679372
51BRNI1SNAKE-BROWNLEE DAM10-12-2021INFLOW (KAF)2659369972
52KIOW1YAKIMA-AT KIONA10-12-2021DISCHARGE (KAF)49167473
53JLKW4SNAKE-JACKSON LAKE AT DAM10-12-2021INFLOW (KAF)8311274
54DLGM8CLARK FORK-AT DEER LODGE10-12-2021DISCHARGE (KAF)476375
55AFRI1SNAKE-AMERICAN FALLS RESERVOIR10-12-2021INFLOW (KAF)1103146975
56PARW1YAKIMA-NEAR PARKER10-12-2021DISCHARGE (KAF)33143876
57HOTI1BRUNEAU-NEAR HOT SPRINGS10-12-2021DISCHARGE (KAF)212778
58BONM8BLACKFOOT-NEAR BONNER10-12-2021DISCHARGE (KAF)10813779
59TONW1OKANOGAN-NEAR TONASKET10-12-2021DISCHARGE (KAF)22328279
60BONO3COLUMBIA-BONNEVILLE DAM10-12-2021INFLOW (KAF)281043548179
61ALPW4SNAKE-NEAR ALPINE10-12-2021DISCHARGE (KAF)32140180
62ABOM8CLARK FORK-ABOVE MISSOULA10-12-2021DISCHARGE (KAF)28334981
63PLDI1SF SNAKE-PALISADES DAM10-12-2021INFLOW (KAF)52264781
64GIBO3UMATILLA-NEAR GIBBON10-12-2021DISCHARGE (KAF)253181
65LYDM8KOOTENAI-LIBBY DAM10-12-2021INFLOW (KAF)76293582
66UMTW1YAKIMA-AT UMTANUM10-12-2021DISCHARGE (KAF)20024382
67WRMO3MALHEUR-WARM SPRINGS DAM10-12-2021INFLOW (KAF)161982
68TDAO3COLUMBIA-THE DALLES DAM10-12-2021INFLOW (KAF)274913346782
69UNDW1WHITE SALMON-NEAR UNDERWOOD10-12-2021DISCHARGE (KAF)18522682
70JKSW4SNAKE-NEAR JACKSON10-12-2021DISCHARGE (KAF)26231683
71ARAI1SF BOISE-ANDERSON RANCH DAM10-12-2021INFLOW (KAF)627483
72PARI1BOISE-NEAR PARMA10-12-2021DISCHARGE (KAF)17521083
73PATW1METHOW-NEAR PATEROS10-12-2021DISCHARGE (KAF)8410084
74EASW1YAKIMA-AT EASTON10-12-2021DISCHARGE (KAF)556584
75CLFW1NACHES-NEAR CLIFFDEL10-12-2021DISCHARGE (KAF)8510085
76TEAI1TETON-NEAR ST. ANTHONY10-12-2021DISCHARGE (KAF)9110785
77PITW1KLICKITAT-NEAR PITT10-12-2021DISCHARGE (KAF)23026487
78MCDW1COLUMBIA-MCNARY DAM10-12-2021INFLOW (KAF)257202924688
79JDAO3COLUMBIA-JOHN DAY DAM10-12-2021INFLOW (KAF)267943010889
80BUDW1BUMPING-BUMPING LAKE DAM10-12-2021INFLOW (KAF)323591
81ANTI1HENRYS FORK-AT ST. ANTHONY10-12-2021DISCHARGE (KAF)31334192
82RCCM8ROCK CREEK-NEAR CLINTON10-12-2021DISCHARGE (KAF)475093
83REXI1HENRYS FORK-AT REXBURG10-12-2021DISCHARGE (KAF)40043393
84CHJW1COLUMBIA-CHIEF JOSEPH DAM10-12-2021INFLOW (KAF)201052112995
85WELW1COLUMBIA-WELLS DAM10-12-2021INFLOW (KAF)204102148095
86RRHW1COLUMBIA-ROCKY REACH DAM10-12-2021INFLOW (KAF)208222199495
87CHEI1FALL RIVER-NEAR CHESTER10-12-2021DISCHARGE (KAF)10711295
88RIDI1WILLOW CREEK-RIRIE DAM10-12-2021INFLOW (KAF)8895
89PDTO3UMATILLA-AT PENDLETON10-12-2021DISCHARGE (KAF)656995
90HODO3HOOD-NEAR TUCKER BRIDGE10-12-2021DISCHARGE (KAF)20621496
91MODO3DESCHUTES-AT MOODY NR BIGGS10-12-2021DISCHARGE (KAF)1319136597
92NACW1NACHES-NEAR NACHES10-12-2021DISCHARGE (KAF)717398
93KEDW1YAKIMA-KEECHELUS LAKE10-12-2021INFLOW (KAF)5050100
94GCDW1COLUMBIA-GRAND COULEE DAM10-12-2021INFLOW (KAF)1767517380102
95PESW1WENATCHEE-AT PESHASTIN10-12-2021DISCHARGE (KAF)299294102
96PRWW1COLUMBIA-PRIEST RAPIDS DAM10-12-2021INFLOW (KAF)2118019935106
97KADW1KACHESS-KACHESS DAM10-12-2021INFLOW (KAF)4744107
98WANW1COLUMBIA-WANAPUM DAM10-12-2021INFLOW (KAF)2118219612108
99MYKO3MCKAY CREEK-NEAR PILOT ROCK10-12-2021DISCHARGE (KAF)1714117
100ARDW1ENTIAT-NEAR ARDENVOIR10-12-2021DISCHARGE (KAF)2622118
101CLUW1CLE ELUM-CLE ELUM LAKE10-12-2021INFLOW (KAF)121101119
102BIGI1BOISE-AT GLENWOOD BRIDGE10-12-2021DISCHARGE (KAF)4537123
103BULO3BULLY CREEK-BULLY CREEK DAM10-12-2021INFLOW (KAF)32134
104UMAO3UMATILLA-NEAR UMATILLA10-12-2021DISCHARGE (KAF)10372142
105LEOI1KOOTENAI-AT LEONIA10-12-2021DISCHARGE (KAF)25351616157
106CHDW1CHELAN-LAKE CHELAN DAM10-12-2021INFLOW (KAF)270158171
107MACI1BIG LOST-MACKAY RESERVOIR NEAR MACKAY10-12-2021INFLOW (KAF)246386
108BFEI1KOOTENAI-AT BONNERS FERRY10-12-2021STAGE (FT)MMM
109DRMM8CLARK FORK-NR DRUMMOND10-12-2021DISCHARGE (KAF)117MM
110HOPI1PEND OREILLE-PEND OREILLE LAKE NR HOPE10-12-2021LAKE ELEVATION (FT)MMM
111SPOW1SPOKANE-AT SPOKANE10-12-2021DISCHARGE (KAF)350MM
112SJMI1ST JOE-AT ST MARIES10-12-2021STAGE (FT)MMM
113CIBW1COLUMBIA-AT INTL BOUNDARY10-12-2021DISCHARGE (KAF)17039MM
114MILI1SNAKE-AT MILNER10-12-2021DISCHARGE (KAF)M533M
115LUCI1BOISE-LUCKY PEAK DAM10-12-2021INFLOW (KAF)31MM